Meteo pe oră la Abay (Tyulkubasskiy rayon)

Astăzi, 5 August, Joi

Timp Temperatura Precipitaţii Vânt Presiune Umiditate
00:00 +28°C° 0 mm 3 m/s 702 mmHg 24%
01:00 +27°C° 0 mm 3 m/s 702 mmHg 25%
02:00 +26°C° 0 mm 3 m/s 702 mmHg 26%
03:00 +26°C° 0 mm 3 m/s 702 mmHg 28%
04:00 +25°C° 0 mm 3 m/s 702 mmHg 30%
05:00 +25°C° 0 mm 3 m/s 702 mmHg 32%
06:00 +26°C° 0 mm 4 m/s 702 mmHg 30%
07:00 +28°C° 0 mm 4 m/s 702 mmHg 27%
08:00 +30°C° 0 mm 4 m/s 703 mmHg 24%
09:00 +33°C° 0 mm 5 m/s 703 mmHg 22%
10:00 +35°C° 0 mm 5 m/s 703 mmHg 20%
11:00 +37°C° 0 mm 5 m/s 703 mmHg 18%
12:00 +38°C° 0 mm 6 m/s 703 mmHg 17%
13:00 +39°C° 0 mm 6 m/s 702 mmHg 16%
14:00 +40°C° 0 mm 7 m/s 702 mmHg 14%
15:00 +39°C° 0 mm 7 m/s 702 mmHg 15%
16:00 +39°C° 0 mm 7 m/s 702 mmHg 15%
17:00 +38°C° 0 mm 8 m/s 702 mmHg 16%
18:00 +35°C° 0 mm 7 m/s 702 mmHg 16%
19:00 +34°C° 0 mm 6 m/s 702 mmHg 17%
20:00 +32°C° 0 mm 5 m/s 702 mmHg 17%
21:00 +30°C° 0 mm 6 m/s 702 mmHg 18%
22:00 +30°C° 0 mm 6 m/s 701 mmHg 18%
23:00 +29°C° 0 mm 6 m/s 701 mmHg 18%

Mâine, 6 August, Vineri

Timp Temperatura Precipitaţii Vânt Presiune Umiditate
00:00 +28°C° 0 mm 5 m/s 701 mmHg 21%
01:00 +27°C° 0 mm 4 m/s 701 mmHg 23%
02:00 +26°C° 0 mm 4 m/s 700 mmHg 26%
03:00 +26°C° 0 mm 4 m/s 700 mmHg 28%
04:00 +25°C° 0 mm 4 m/s 700 mmHg 29%
05:00 +25°C° 0 mm 4 m/s 700 mmHg 31%
06:00 +27°C° 0 mm 5 m/s 701 mmHg 27%
07:00 +29°C° 0 mm 5 m/s 701 mmHg 23%
08:00 +32°C° 0 mm 6 m/s 702 mmHg 19%
09:00 +34°C° 0 mm 6 m/s 702 mmHg 18%
10:00 +35°C° 0 mm 7 m/s 702 mmHg 16%
11:00 +38°C° 0 mm 7 m/s 702 mmHg 15%
12:00 +38°C° 0 mm 7 m/s 702 mmHg 14%
13:00 +39°C° 0 mm 7 m/s 701 mmHg 13%
14:00 +40°C° 0 mm 7 m/s 701 mmHg 12%
15:00 +39°C° 0 mm 7 m/s 701 mmHg 13%
16:00 +39°C° 0 mm 7 m/s 701 mmHg 13%
17:00 +39°C° 0 mm 7 m/s 701 mmHg 13%
18:00 +36°C° 0 mm 6 m/s 701 mmHg 15%
19:00 +33°C° 0 mm 5 m/s 701 mmHg 17%
20:00 +30°C° 0 mm 5 m/s 701 mmHg 19%
21:00 +30°C° 0 mm 5 m/s 701 mmHg 20%
22:00 +29°C° 0 mm 5 m/s 701 mmHg 21%
23:00 +28°C° 0 mm 5 m/s 701 mmHg 21%

Poimâine, 7 August, Sâmbătă

Timp Temperatura Precipitaţii Vânt Presiune Umiditate
00:00 +27°C° 0 mm 4 m/s 700 mmHg 24%
01:00 +26°C° 0 mm 4 m/s 700 mmHg 26%
02:00 +25°C° 0 mm 3 m/s 700 mmHg 29%
03:00 +25°C° 0 mm 3 m/s 700 mmHg 29%
04:00 +25°C° 0 mm 3 m/s 700 mmHg 30%
05:00 +25°C° 0 mm 3 m/s 700 mmHg 31%
06:00 +27°C° 0 mm 3 m/s 701 mmHg 27%
07:00 +30°C° 0 mm 2 m/s 701 mmHg 22%
08:00 +32°C° 0 mm 2 m/s 702 mmHg 18%
09:00 +35°C° 0 mm 3 m/s 702 mmHg 17%
10:00 +36°C° 0 mm 3 m/s 702 mmHg 15%
11:00 +38°C° 0 mm 3 m/s 702 mmHg 13%
12:00 +40°C° 0 mm 4 m/s 702 mmHg 12%
13:00 +40°C° 0 mm 4 m/s 701 mmHg 11%
14:00 +41°C° 0 mm 4 m/s 701 mmHg 10%
15:00 +41°C° 0 mm 4 m/s 701 mmHg 10%
16:00 +41°C° 0 mm 5 m/s 701 mmHg 10%
17:00 +40°C° 0 mm 5 m/s 701 mmHg 11%
18:00 +37°C° 0 mm 5 m/s 701 mmHg 13%
19:00 +34°C° 0 mm 4 m/s 701 mmHg 16%
20:00 +32°C° 0 mm 4 m/s 702 mmHg 18%
21:00 +30°C° 0 mm 4 m/s 702 mmHg 21%
22:00 +29°C° 0 mm 3 m/s 702 mmHg 23%
23:00 +28°C° 0 mm 3 m/s 702 mmHg 25%

8 August, Duminică

Timp Temperatura Precipitaţii Vânt Presiune Umiditate
00:00 +27°C° 0 mm 3 m/s 702 mmHg 27%
01:00 +27°C° 0 mm 3 m/s 701 mmHg 28%
02:00 +26°C° 0 mm 2 m/s 701 mmHg 30%
03:00 +26°C° 0 mm 2 m/s 702 mmHg 30%
04:00 +26°C° 0 mm 2 m/s 702 mmHg 29%
05:00 +25°C° 0 mm 2 m/s 702 mmHg 29%
06:00 +28°C° 0 mm 2 m/s 703 mmHg 25%
07:00 +31°C° 0 mm 2 m/s 703 mmHg 21%
08:00 +34°C° 0 mm 2 m/s 704 mmHg 18%
09:00 +36°C° 0 mm 2 m/s 704 mmHg 15%
10:00 +37°C° 0 mm 2 m/s 704 mmHg 13%
11:00 +39°C° 0 mm 3 m/s 704 mmHg 11%
12:00 +39°C° 0 mm 3 m/s 704 mmHg 10%
13:00 +40°C° 0 mm 3 m/s 703 mmHg 9%
14:00 +42°C° 0 mm 4 m/s 703 mmHg 9%
15:00 +42°C° 0 mm 4 m/s 703 mmHg 9%
16:00 +41°C° 0 mm 4 m/s 703 mmHg 10%
17:00 +41°C° 0 mm 4 m/s 703 mmHg 10%
18:00 +38°C° 0 mm 4 m/s 703 mmHg 13%
19:00 +35°C° 0 mm 3 m/s 703 mmHg 15%
20:00 +31°C° 0 mm 2 m/s 703 mmHg 18%
21:00 +30°C° 0 mm 3 m/s 703 mmHg 20%
22:00 +29°C° 0 mm 3 m/s 703 mmHg 21%
23:00 +28°C° 0 mm 3 m/s 703 mmHg 23%

9 August, Luni

Timp Temperatura Precipitaţii Vânt Presiune Umiditate
00:00 +27°C° 0 mm 3 m/s 703 mmHg 24%
01:00 +26°C° 0 mm 3 m/s 703 mmHg 25%
02:00 +26°C° 0 mm 4 m/s 703 mmHg 26%
03:00 +25°C° 0 mm 3 m/s 702 mmHg 27%
04:00 +25°C° 0 mm 3 m/s 702 mmHg 29%
05:00 +24°C° 0 mm 3 m/s 702 mmHg 30%
06:00 +26°C° 0 mm 3 m/s 703 mmHg 27%
07:00 +28°C° 0 mm 2 m/s 703 mmHg 24%
08:00 +30°C° 0 mm 2 m/s 703 mmHg 22%
09:00 +33°C° 0 mm 3 m/s 703 mmHg 20%
10:00 +35°C° 0 mm 3 m/s 703 mmHg 17%
11:00 +37°C° 0 mm 4 m/s 704 mmHg 15%
12:00 +37°C° 0 mm 4 m/s 704 mmHg 14%
13:00 +37°C° 0 mm 5 m/s 704 mmHg 13%
14:00 +39°C° 0 mm 6 m/s 704 mmHg 12%
15:00 +38°C° 0 mm 6 m/s 704 mmHg 12%
16:00 +37°C° 0 mm 5 m/s 704 mmHg 13%
17:00 +36°C° 0 mm 5 m/s 704 mmHg 13%
18:00 +34°C° 0 mm 5 m/s 704 mmHg 16%
19:00 +30°C° 0 mm 4 m/s 704 mmHg 18%
20:00 +28°C° 0 mm 4 m/s 704 mmHg 20%
21:00 +27°C° 0 mm 3 m/s 704 mmHg 21%
22:00 +26°C° 0 mm 3 m/s 704 mmHg 21%
23:00 +25°C° 0 mm 3 m/s 704 mmHg 22%

10 August, Marţi

Timp Temperatura Precipitaţii Vânt Presiune Umiditate
00:00 +24°C° 0 mm 3 m/s 704 mmHg 22%
01:00 +22°C° 0 mm 3 m/s 704 mmHg 23%
02:00 +22°C° 0 mm 3 m/s 704 mmHg 24%
03:00 +21°C° 0 mm 3 m/s 704 mmHg 24%
04:00 +21°C° 0 mm 3 m/s 704 mmHg 25%
05:00 +20°C° 0 mm 3 m/s 704 mmHg 25%
06:00 +24°C° 0 mm 3 m/s 704 mmHg 23%
07:00 +26°C° 0 mm 3 m/s 704 mmHg 20%
08:00 +28°C° 0 mm 4 m/s 705 mmHg 17%
09:00 +30°C° 0 mm 4 m/s 705 mmHg 16%
10:00 +33°C° 0 mm 4 m/s 705 mmHg 14%
11:00 +34°C° 0 mm 4 m/s 705 mmHg 13%
12:00 +35°C° 0 mm 4 m/s 705 mmHg 12%
13:00 +36°C° 0 mm 5 m/s 704 mmHg 11%
14:00 +37°C° 0 mm 5 m/s 704 mmHg 10%
15:00 +38°C° 0 mm 6 m/s 704 mmHg 11%
16:00 +36°C° 0 mm 7 m/s 704 mmHg 12%
17:00 +35°C° 0 mm 7 m/s 704 mmHg 12%
18:00 +33°C° 0 mm 7 m/s 704 mmHg 15%
19:00 +30°C° 0 mm 7 m/s 703 mmHg 18%
20:00 +28°C° 0 mm 6 m/s 703 mmHg 20%
21:00 +27°C° 0 mm 6 m/s 703 mmHg 23%
22:00 +26°C° 0 mm 5 m/s 703 mmHg 25%
23:00 +25°C° 0 mm 5 m/s 703 mmHg 28%
Arată mai mult

Formular de consimțământ

Meteoprog și furnizorii noștri de servicii pot stoca și accesa date personale, precum cookies, identificatori de dispozitiv sau alte tehnologii similare pe dispozitivul dumneavoastră și procesa astfel de date pentru a personaliza conținutul și reclamele, dar și pentru a oferi caracteristici de social media și pentru a analiza traficul.

  • Stocarea și/sau accesarea informațiilor pe dispozitivul dumneavoastră

    Cookies, identificatori de dispozitiv sau alte informații pot fi stocate sau accesate pe dispozitiv în scopurile indicate mai sus.

  • Reclame și conținut personalizat, evaluarea reclamelor și a conținutului, informații despre audiențe și dezvoltarea produselor

    Reclamele și conținutul pot fi personalizate pe baza unui profil. Pot fi adăugate date suplimentare pentru a personaliza mai bine reclamele și conținutul. Performanța reclamelor și conținutului poate fi măsurată. Pot fi obținute informații despre utilizatorii care au văzut reclamele și conținutul. Aceste date pot fi utilizate pentru a dezvolta sau îmbunătăți experiența utilizatorilor, sistemele și software-ul.

Dând clic pe ‘Sunt de acord’, permiteți utilizarea cookie-urilor menționate, a identificatorilor de dispozitiv, balizelor web sau altor tehnologii similare. Setările pot fi modificate din browser-ul dispozitivului dumneavoastră.

În anumite scopuri, interesele legitime pot prima asupra consimțământului. Puteți citi mai multe informații în acest sens în Politica privind Confidențialitatea Datelor și Cookie.